TimeEST,TemperatureF,Dew PointF,Humidity,Sea Level PressureIn,VisibilityMPH,Wind Direction,Wind SpeedMPH,Gust SpeedMPH,PrecipitationIn,Events,Conditions,WindDirDegrees,DateUTC
12:15 AM,51.8,39.2,62,30.13,10.0,NNE,8.1,-,N/A,,Clear,20,2012-11-22 05:15:00
12:35 AM,51.8,39.2,62,30.13,7.0,NNE,8.1,-,N/A,,Clear,20,2012-11-22 05:35:00
12:55 AM,50.0,39.2,66,30.13,10.0,NNE,8.1,-,N/A,,Clear,20,2012-11-22 05:55:00
1:15 AM,50.0,37.4,62,30.13,10.0,NNE,5.8,-,N/A,,Clear,30,2012-11-22 06:15:00
1:35 AM,50.0,37.4,62,30.13,7.0,NNE,9.2,-,N/A,,Clear,30,2012-11-22 06:35:00
1:55 AM,50.0,37.4,62,30.13,7.0,NNE,6.9,-,N/A,,Clear,20,2012-11-22 06:55:00
2:15 AM,50.0,37.4,62,30.13,10.0,NNE,9.2,-,N/A,,Clear,20,2012-11-22 07:15:00
2:35 AM,50.0,37.4,62,30.13,10.0,NNE,9.2,-,N/A,,Clear,20,2012-11-22 07:35:00
2:55 AM,48.2,37.4,66,30.13,10.0,NNE,6.9,-,N/A,,Clear,30,2012-11-22 07:55:00
3:15 AM,50.0,37.4,62,30.13,10.0,NNE,6.9,-,N/A,,Clear,20,2012-11-22 08:15:00
3:35 AM,48.2,37.4,66,30.13,10.0,North,6.9,-,N/A,,Clear,10,2012-11-22 08:35:00
3:55 AM,48.2,39.2,71,30.13,7.0,North,4.6,-,N/A,,Clear,350,2012-11-22 08:55:00
4:15 AM,48.2,39.2,71,30.13,10.0,North,4.6,-,N/A,,Clear,360,2012-11-22 09:15:00
4:35 AM,46.4,39.2,76,30.14,7.0,North,5.8,-,N/A,,Clear,350,2012-11-22 09:35:00
4:55 AM,46.4,39.2,76,30.15,10.0,North,4.6,-,N/A,,Clear,350,2012-11-22 09:55:00
5:15 AM,46.4,39.2,76,30.15,7.0,North,5.8,-,N/A,,Clear,360,2012-11-22 10:15:00
5:35 AM,46.4,37.4,71,30.16,7.0,North,4.6,-,N/A,,Clear,350,2012-11-22 10:35:00
6:15 AM,46.4,37.4,71,30.17,7.0,North,8.1,-,N/A,,Clear,360,2012-11-22 11:15:00
6:35 AM,46.4,37.4,71,30.17,10.0,North,5.8,-,N/A,,Clear,350,2012-11-22 11:35:00
6:55 AM,46.4,35.6,66,30.19,7.0,North,5.8,-,N/A,,Clear,350,2012-11-22 11:55:00
7:15 AM,46.4,37.4,71,30.19,7.0,North,5.8,-,N/A,,Clear,360,2012-11-22 12:15:00
7:35 AM,46.4,37.4,71,30.21,7.0,North,6.9,-,N/A,,Clear,360,2012-11-22 12:35:00
7:55 AM,46.4,37.4,71,30.21,7.0,North,8.1,-,N/A,,Clear,360,2012-11-22 12:55:00
8:15 AM,46.4,37.4,71,30.22,7.0,North,10.4,-,N/A,,Clear,10,2012-11-22 13:15:00
8:35 AM,48.2,37.4,66,30.22,7.0,North,8.1,16.1,N/A,,Clear,360,2012-11-22 13:35:00
8:55 AM,48.2,35.6,62,30.22,7.0,North,11.5,16.1,N/A,,Clear,360,2012-11-22 13:55:00
9:15 AM,48.2,35.6,62,30.22,7.0,North,10.4,16.1,N/A,,Clear,360,2012-11-22 14:15:00
9:35 AM,50.0,35.6,58,30.23,7.0,North,9.2,16.1,N/A,,Clear,360,2012-11-22 14:35:00
9:55 AM,50.0,35.6,58,30.23,7.0,North,10.4,16.1,N/A,,Unknown,360,2012-11-22 14:55:00
10:15 AM,51.8,35.6,54,30.23,7.0,North,9.2,19.6,N/A,,Unknown,350,2012-11-22 15:15:00
10:35 AM,53.6,35.6,51,30.22,10.0,North,11.5,-,N/A,,Unknown,360,2012-11-22 15:35:00
10:55 AM,55.4,35.6,47,30.22,10.0,North,10.4,19.6,N/A,,Unknown,360,2012-11-22 15:55:00
11:15 AM,57.2,33.8,41,30.21,10.0,North,12.7,18.4,N/A,,Clear,10,2012-11-22 16:15:00
11:35 AM,57.2,33.8,41,30.20,7.0,North,10.4,17.3,N/A,,Clear,360,2012-11-22 16:35:00
11:55 AM,57.2,32.0,38,30.19,10.0,North,11.5,19.6,N/A,,Clear,10,2012-11-22 16:55:00
12:15 PM,59.0,32.0,36,30.18,10.0,North,10.4,16.1,N/A,,Clear,360,2012-11-22 17:15:00
12:35 PM,59.0,32.0,36,30.16,7.0,North,12.7,19.6,N/A,,Clear,360,2012-11-22 17:35:00
12:55 PM,60.8,32.0,34,30.16,10.0,North,10.4,16.1,N/A,,Clear,350,2012-11-22 17:55:00
1:15 PM,60.8,32.0,34,30.16,10.0,NNW,10.4,-,N/A,,Clear,340,2012-11-22 18:15:00
1:35 PM,62.6,32.0,32,30.15,10.0,North,6.9,16.1,N/A,,Clear,360,2012-11-22 18:35:00
1:55 PM,62.6,32.0,32,30.14,7.0,NNW,5.8,-,N/A,,Clear,340,2012-11-22 18:55:00
2:15 PM,62.6,30.2,30,30.14,10.0,North,11.5,17.3,N/A,,Clear,360,2012-11-22 19:15:00
2:35 PM,62.6,28.4,27,30.14,7.0,North,9.2,-,N/A,,Clear,350,2012-11-22 19:35:00
2:55 PM,62.6,30.2,30,30.14,10.0,North,6.9,-,N/A,,Clear,350,2012-11-22 19:55:00
3:15 PM,62.6,33.8,34,30.14,10.0,NNW,4.6,-,N/A,,Clear,340,2012-11-22 20:15:00
3:35 PM,62.6,32.0,32,30.14,10.0,North,8.1,-,N/A,,Clear,360,2012-11-22 20:35:00
4:15 PM,62.6,32.0,32,30.14,10.0,North,5.8,-,N/A,,Clear,360,2012-11-22 21:15:00
5:15 PM,57.2,35.6,44,30.15,10.0,Calm,Calm,-,N/A,,Clear,0,2012-11-22 22:15:00
5:35 PM,55.4,37.4,51,30.16,10.0,Calm,Calm,-,N/A,,Clear,0,2012-11-22 22:35:00
5:55 PM,51.8,41.0,67,30.16,10.0,Calm,Calm,-,N/A,,Clear,0,2012-11-22 22:55:00
6:15 PM,48.2,41.0,76,30.16,10.0,Calm,Calm,-,N/A,,Clear,0,2012-11-22 23:15:00
6:35 PM,46.4,41.0,81,30.16,10.0,Calm,Calm,-,N/A,,Clear,0,2012-11-22 23:35:00
6:55 PM,46.4,41.0,81,30.17,7.0,Calm,Calm,-,N/A,,Clear,0,2012-11-22 23:55:00
7:35 PM,42.8,39.2,87,30.17,10.0,Calm,Calm,-,N/A,,Clear,0,2012-11-23 00:35:00
7:55 PM,42.8,39.2,87,30.18,7.0,Calm,Calm,-,N/A,,Clear,0,2012-11-23 00:55:00
8:15 PM,42.8,39.2,87,30.18,7.0,Calm,Calm,-,N/A,,Clear,0,2012-11-23 01:15:00
8:35 PM,41.0,39.2,93,30.19,5.0,Calm,Calm,-,N/A,,Clear,0,2012-11-23 01:35:00
8:55 PM,41.0,39.2,93,30.18,5.0,Calm,Calm,-,N/A,,Clear,0,2012-11-23 01:55:00
9:15 PM,41.0,39.2,93,30.18,5.0,Calm,Calm,-,N/A,,Clear,0,2012-11-23 02:15:00
9:35 PM,41.0,39.2,93,30.19,7.0,Calm,Calm,-,N/A,,Clear,0,2012-11-23 02:35:00
9:55 PM,41.0,39.2,93,30.19,7.0,Calm,Calm,-,N/A,,Clear,0,2012-11-23 02:55:00
10:15 PM,41.0,37.4,87,30.18,7.0,Calm,Calm,-,N/A,,Clear,0,2012-11-23 03:15:00
10:35 PM,41.0,37.4,87,30.19,7.0,Calm,Calm,-,N/A,,Clear,0,2012-11-23 03:35:00
10:55 PM,39.2,37.4,93,30.19,7.0,Calm,Calm,-,N/A,,Clear,0,2012-11-23 03:55:00
11:15 PM,39.2,37.4,93,30.19,7.0,Calm,Calm,-,N/A,,Clear,0,2012-11-23 04:15:00
11:35 PM,39.2,37.4,93,30.18,7.0,Calm,Calm,-,N/A,,Clear,0,2012-11-23 04:35:00
11:55 PM,39.2,37.4,93,30.18,7.0,Calm,Calm,-,N/A,,Clear,0,2012-11-23 04:55:00